Location: Peebles
(55.6412°N, 3.1714°W)
Time: 20:11:20
(UTC+01:00)

deb Kosmos-2123 - Pass Details

Date: 05 July 2022
Orbit: 942 x 985 km, 82.9° (Epoch: 17 August)

Event Time Altitude Azimuth Distance (km) Brightness Sun altitude
Exits shadow 03:11:45 - 231° (SW) 3,061 ? -7.9°
Reaches altitude 10° 03:12:45 10° 235° (SW) 2,740 ? -7.8°
Maximum altitude 03:18:18 32° 298° (WNW) 1,622 ? -7.4°
Drops below altitude 10° 03:23:52 10° 0° (N) 2,737 ? -7.1°
Sets 03:26:42 0° 11° (N) 3,682 ? -6.9°
